Tracking 27111 objects as of 28-Mar-2023
HD Live streaming from Space Station
objects crossing your sky now

FREGAT R/B

Track FREGAT R/B now!
10-day predictions


NORAD ID: 40352
Int'l Code: 2014-083E
Perigee: 7,677.4 km
Apogee: 7,703.2 km
Inclination: 0.0 °
Period: 276.6 minutes
Semi major axis: 14061 km
RCS: Unknown
Launch date: December 18, 2014
Source: Commonwealth of Independent States (former USSR) (CIS)
Launch site: FRENCH GUIANA (FRGUI)

Note: This is a ROCKET BODY
Your satellite tracking list
Your tracking list is empty




NASA's NSSDC Master Catalog

Two Line Element Set (TLE):
1 40352U 14083E   23086.78906773 -.00000026  00000-0  00000-0 0  9995
2 40352   0.0468 128.2175 0009170 234.5407 357.2436  5.20671812157366
Source of the keplerian elements: AFSPC